Weather History for Bellingham, WA

Change the Weather History Date:

Wednesday, December 5, 2012

  Actual Average Record
Temperature  
Mean Temperature 44 °F 39 °F  
Max Temperature 46 °F 45 °F 58 °F (1987)
Min Temperature 43 °F 33 °F 15 °F (1956)
Degree Days  
Heating Degree Days 20 26  
Month to date heating degree days 128  
Cooling Degree Days 0 0  
Month to date cooling degree days 0  
Year to date cooling degree days 42  
Moisture  
Dew Point 36 °F    
Average Humidity 72    
Maximum Humidity 82    
Minimum Humidity 63    
Precipitation  
Precipitation 0.01 in 0.15 in 0.80 in (1991)
Month to date precipitation 0.82  
Year to date precipitation 32.43  
Sea Level Pressure  
Sea Level Pressure 30.11 in    
Wind  
Wind Speed 10 mph (SSE)    
Max Wind Speed 14 mph    
Max Gust Speed 28 mph    
Visibility 10 miles    
Events Rain    
T = Trace of Precipitation, MM = Missing Value Source: NWS Daily Summary

Daily Weather History Graph

Daily Weather History Graph

Search for Another Location

Airport:

Trip Planner

Search our weather history database for the weather conditions in past years. The results will help you decide how hot, cold, wet, or windy it might be!

Date:

Astronomy

Dec. 05, 2012 Rise Set
Actual Time 7:47 AM PST 4:14 PM PST
Civil Twilight 7:11 AM PST 4:50 PM PST
Nautical Twilight 6:31 AM PST 5:30 PM PST
Astronomical Twilight 5:52 AM PST 6:09 PM PST
Moon 11:36 PM PST (12/5) 11:49 AM PST (12/5)
Length of Visible Light 9h 39m
Length of Day
8h 26m
Waning Gibbous, 58% of the Moon is Illuminated
Dec 5
Waning Gibbous
Dec 6
Last Quarter
Dec 13
New
Dec 19
First Quarter
Dec 28
Full

Hourly Weather History & Observations

Time (PST) Temp. Windchill Dew Point Humidity Pressure Visibility Wind Dir Wind Speed Gust Speed Precip Events Conditions
12:53 AM 45.0 °F 39.7 °F 33.1 °F 63% 29.83 in 10.0 mi South 10.4 mph 27.6 mph N/A   Scattered Clouds
1:53 AM 45.0 °F 40.1 °F 34.0 °F 65% 29.88 in 10.0 mi SW 9.2 mph 19.6 mph N/A   Unknown
2:53 AM 44.1 °F 38.6 °F 34.0 °F 68% 29.94 in 10.0 mi South 10.4 mph 18.4 mph N/A   Clear
3:53 AM 44.1 °F 38.6 °F 34.0 °F 68% 29.96 in 10.0 mi SSW 10.4 mph 19.6 mph N/A   Scattered Clouds
4:53 AM 45.0 °F 41.2 °F 35.1 °F 68% 30.00 in 10.0 mi Variable 6.9 mph - N/A   Mostly Cloudy
6:53 AM 44.1 °F 38.1 °F 34.0 °F 68% 30.07 in 10.0 mi South 11.5 mph 20.7 mph N/A   Mostly Cloudy
7:53 AM 43.0 °F 38.8 °F 34.0 °F 71% 30.10 in 10.0 mi Variable 6.9 mph - N/A   Clear
8:53 AM 44.1 °F 40.1 °F 35.1 °F 71% 30.12 in 10.0 mi Variable 6.9 mph - N/A   Scattered Clouds
9:53 AM 45.0 °F 40.1 °F 35.1 °F 68% 30.16 in 10.0 mi South 9.2 mph - N/A   Mostly Cloudy
10:53 AM 44.1 °F 37.7 °F 36.0 °F 73% 30.17 in 10.0 mi SSE 12.7 mph - N/A   Overcast
11:53 AM 46.0 °F 41.9 °F 37.0 °F 71% 30.17 in 10.0 mi SSE 8.1 mph - N/A   Overcast
12:53 PM 46.0 °F 41.0 °F 37.9 °F 73% 30.16 in 10.0 mi South 10.4 mph 16.1 mph N/A   Overcast
1:53 PM 46.9 °F - 36.0 °F 66% 30.15 in 10.0 mi SSE 8.1 mph 17.3 mph N/A   Scattered Clouds
2:53 PM 46.9 °F - 35.1 °F 63% 30.16 in 10.0 mi SSE 10.4 mph - N/A   Overcast
3:53 PM 46.0 °F 41.0 °F 35.1 °F 66% 30.17 in 10.0 mi SSE 10.4 mph - N/A   Overcast
4:53 PM 46.9 °F - 35.1 °F 63% 30.17 in 10.0 mi SSE 13.8 mph 18.4 mph N/A   Overcast
5:53 PM 46.0 °F 41.4 °F 36.0 °F 68% 30.17 in 10.0 mi SSE 9.2 mph - N/A   Overcast
6:53 PM 46.0 °F 41.0 °F 37.0 °F 71% 30.17 in 10.0 mi SSE 10.4 mph 20.7 mph 0.00 in Rain Light Rain
7:53 PM 45.0 °F 40.1 °F 39.0 °F 80% 30.18 in 10.0 mi SSE 9.2 mph - 0.00 in Rain Light Rain
8:12 PM 44.6 °F 40.7 °F 39.2 °F 81% 30.16 in 9.0 mi South 6.9 mph - 0.00 in Rain Light Rain
8:19 PM 44.6 °F 40.2 °F 39.2 °F 81% 30.16 in 7.0 mi SSE 8.1 mph - 0.00 in Rain Light Rain
8:53 PM 44.1 °F 39.5 °F 39.0 °F 82% 30.18 in 7.0 mi SSE 8.1 mph - 0.01 in Rain Light Rain
9:53 PM 44.1 °F 39.5 °F 39.0 °F 82% 30.17 in 10.0 mi SSE 8.1 mph - 0.00 in   Overcast
10:32 PM 44.6 °F 39.7 °F 39.2 °F 81% 30.14 in 10.0 mi SSE 9.2 mph - 0.00 in Rain Light Rain
10:53 PM 44.1 °F 38.6 °F 39.0 °F 82% 30.17 in 9.0 mi SSE 10.4 mph - 0.00 in Rain Light Rain
11:53 PM 44.1 °F 39.0 °F 39.0 °F 82% 30.17 in 10.0 mi South 9.2 mph - 0.00 in   Overcast